Pian Rosa, Italy

5:25 AM CEST on April 25, 2018 (GMT +0200)
Pian Rosa

Weather History for LIMH - November, 2013

Change the Weather History Date:

Wednesday, November 27, 2013

  Actual Average Record
Temperature  
Mean Temperature 4 °F -  
Max Temperature 10 °F 19 °F 33 °F (2011)
Min Temperature -3 °F 9 °F -4 °F (2005)
Degree Days  
Heating Degree Days 62    
Moisture  
Dew Point -9 °F    
Average Humidity 50    
Maximum Humidity 72    
Minimum Humidity 21    
Precipitation  
Precipitation 0.00 in - - ()
Sea Level Pressure  
Sea Level Pressure 29.94 in    
Wind  
Wind Speed 13 mph ()    
Max Wind Speed 21 mph    
Max Gust Speed 37 mph    
Visibility 7.5 miles    
Events      
Averages and records for this station are not official NWS values.
T = Trace of Precipitation, MM = Missing Value Source: Averaged Metar Reports

Daily Weather History Graph

Daily Weather History Graph

Search for Another Location

Airport or City:

Astronomy

Nov. 27, 2013 Rise Set
Actual Time 7:45 AM CET 4:47 PM CET
Civil Twilight 7:12 AM CET 5:21 PM CET
Nautical Twilight 6:34 AM CET 5:58 PM CET
Astronomical Twilight 5:59 AM CET 6:34 PM CET
Moon 1:13 AM CET (11/27) 1:33 PM CET (11/27)
Length of Visible Light 10h 09m
Length of Day
9h 02m
Waning Crescent, 34% of the Moon is Illuminated
Nov 27
Waning Crescent
Dec 3
New
Dec 9
First Quarter
Dec 17
Full
Dec 25
Last Quarter

Hourly Weather History & Observations

Time (CET) Temp. Windchill Dew Point Humidity Pressure Visibility Wind Dir Wind Speed Gust Speed Precip Events Conditions
12:00 AM 4 °F - -13 °F 28%  in 7 mi NE 12.7 mph - -  
12:55 AM 1.4 °F -16.1 °F -11.2 °F 56% 29.83 in - NE 12.7 mph - N/A   Clear
1:00 AM 2 °F - -11 °F 37%  in 7 mi NE 12.7 mph - -  
1:55 AM 1.4 °F -18.8 °F -13.0 °F 51% 29.80 in - NE 17.3 mph 31.1 mph N/A   Clear
2:00 AM 1 °F - -12 °F 37%  in 7 mi NE 17.3 mph - -  
2:55 AM 1.4 °F -18.8 °F -11.2 °F 56% 29.80 in - NE 17.3 mph 29.9 mph N/A   Clear
3:00 AM 1 °F - -11 °F 40%  in 7 mi NE 17.3 mph - -  
3:55 AM -2.2 °F -20.7 °F -11.2 °F 66% 29.77 in - NE 12.7 mph - N/A   Clear
4:00 AM -2 °F - -12 °F 48%  in 7 mi NE 12.7 mph - -  
4:55 AM -0.4 °F -16.7 °F -13.0 °F 55% 29.77 in - NE 10.4 mph 23.0 mph N/A   Clear
5:00 AM -1 °F - -14 °F 38%  in 7 mi NE 10.4 mph - -  
5:55 AM -2.2 °F -18.0 °F -20.2 °F 42% 29.77 in - ENE 9.2 mph - N/A   Clear
6:00 AM -2 °F - -20 °F 25%  in 7 mi ENE 9.2 mph - -  
6:55 AM -2.2 °F -23.5 °F -22.0 °F 39% 29.77 in - ENE 17.3 mph 36.8 mph N/A   Clear
7:00 AM -3 °F - -22 °F 22%  in 9 mi ENE 17.3 mph - -  
7:55 AM -2.2 °F -22.2 °F -22.0 °F 39% 29.77 in - NE 15.0 mph 28.8 mph N/A   Clear
8:00 AM -2 °F - -22 °F 21%  in 19 mi NE 15.0 mph - -  
8:55 AM -2.2 °F -21.5 °F -22.0 °F 39% 29.83 in - NE 13.8 mph - N/A   Clear
9:00 AM -3 °F - -22 °F 22%  in 37 mi NE 13.8 mph - -  
9:55 AM -0.4 °F -20.5 °F -18.4 °F 43% 29.89 in - ENE 16.1 mph 29.9 mph N/A   Clear
10:00 AM -0 °F - -19 °F 24%  in 37 mi ENE 16.1 mph - -  
10:55 AM 1.4 °F -20.5 °F -13.0 °F 51% 29.92 in 6.2 mi ENE 20.7 mph 33.4 mph N/A   Partly Cloudy
11:00 AM 2 °F - -12 °F 34%  in 37 mi ENE 20.7 mph - -   Scattered Clouds
11:55 AM 3.2 °F -15.3 °F -7.6 °F 61% 29.95 in 6.2 mi ENE 15.0 mph - N/A   Partly Cloudy
12:00 PM 3 °F - -8 °F 44%  in 37 mi ENE 15.0 mph - -   Scattered Clouds
12:55 PM 3.2 °F -13.9 °F -5.8 °F 66% 29.98 in 6.2 mi NE 12.7 mph - N/A   Partly Cloudy
1:00 PM 4 °F - -6 °F 49%  in 37 mi NE 12.7 mph - -   Scattered Clouds
1:55 PM 14.0 °F -1.4 °F 5.0 °F 67% 29.98 in - NE 15.0 mph - N/A   Clear
2:00 PM 14 °F - 5 °F 56%  in 31 mi NE 15.0 mph - -  
2:55 PM 6.8 °F -11.3 °F -2.2 °F 67% 29.98 in - ENE 16.1 mph 34.5 mph N/A   Clear
3:00 PM 6 °F - -2 °F 58%  in 28 mi ENE 16.1 mph - -  
3:55 PM 6.8 °F -12.4 °F -0.4 °F 72% 30.01 in - ENE 18.4 mph - N/A   Clear
4:00 PM 7 °F - -1 °F 57%  in 28 mi ENE 18.4 mph - -  
4:55 PM 6.8 °F -12.4 °F -0.4 °F 72% 30.01 in - East 18.4 mph 31.1 mph N/A   Clear
5:00 PM 7 °F - -1 °F 57%  in 31 mi East 18.4 mph - -  
5:55 PM -0.4 °F -18.4 °F -9.4 °F 66% 30.04 in - NE 12.7 mph 26.5 mph N/A   Clear
6:00 PM -0 °F - -10 °F 49%  in 6 mi NE 12.7 mph - -  
6:55 PM 8.6 °F -6.3 °F -2.2 °F 62% 30.06 in - NE 11.5 mph 24.2 mph N/A   Clear
7:00 PM 9 °F - -3 °F 44%  in 6 mi NE 11.5 mph - -  
7:55 PM 8.6 °F -8.3 °F -5.8 °F 52% 30.06 in - NE 15.0 mph 29.9 mph N/A   Clear
8:55 PM 8.6 °F -7.7 °F -0.4 °F 67% 30.12 in - ENE 13.8 mph 25.3 mph N/A   Clear
9:00 PM 9 °F - -1 °F 49%  in 6 mi ENE 13.8 mph - -  
9:55 PM 10.4 °F -6.0 °F -0.4 °F 62% 30.12 in - NE 15.0 mph - N/A   Clear
10:00 PM 10 °F - -0 °F 50%  in 7 mi NE 15.0 mph - -  
10:55 PM 10.4 °F -6.0 °F 1.4 °F 67% 30.12 in - ENE 15.0 mph 29.9 mph N/A   Clear
11:00 PM 10 °F - 1 °F 53%  in 7 mi ENE 15.0 mph - -  
11:55 PM 10.4 °F -2.4 °F 1.4 °F 67% 30.12 in - ENE 9.2 mph - N/A   Clear